Location: Bu�n Treun
(12.1333°N, 108.3167°E)
Time: 11:58:20
(UTC+00:00)

Cosmos 1354 Rocket - Pass Details

Date: 13 July 2020
Orbit: 764 x 784 km, 74.0° (Epoch: 06 August)

Event Time Altitude Azimuth Distance (km) Brightness Sun altitude
Exits shadow 21:16:57 18° 200° (SSW) 1,815 5.5 -16.9°
Maximum altitude 21:20:53 74° 283° (WNW) 802 3.9 -16.1°
Drops below altitude 10° 21:26:08 10° 8° (N) 2,318 7.0 -14.9°
Sets 21:28:31 0° 10° (N) 3,248 7.8 -14.4°
